Time,TemperatureF,DewpointF,PressureIn,WindDirection,WindDirectionDegrees,WindSpeedMPH,WindSpeedGustMPH,Humidity,HourlyPrecipIn,Conditions,Clouds,dailyrainin,SoftwareType,DateUTC
2013-04-13 00:13:00,29.1,12.0,29.83,SSW,201,14.0,-999.0,50,-99.99,,,0.00,weatherlink.com 1.10,2013-04-13 06:13:00,
2013-04-13 00:28:00,29.1,12.0,29.83,SSW,201,14.0,-999.0,49,-99.99,,,0.00,weatherlink.com 1.10,2013-04-13 06:28:00,
2013-04-13 00:44:00,28.7,13.0,29.82,South,185,15.0,-999.0,51,-99.99,,,0.00,weatherlink.com 1.10,2013-04-13 06:44:00,
2013-04-13 00:59:00,28.6,13.0,29.81,SSW,209,14.0,-999.0,52,-99.99,,,0.00,weatherlink.com 1.10,2013-04-13 06:59:00,
2013-04-13 01:29:00,27.6,14.0,29.79,South,186,15.0,-999.0,56,-99.99,,,0.00,weatherlink.com 1.10,2013-04-13 07:29:00,
2013-04-13 01:44:00,27.8,13.0,29.78,SSW,211,18.0,-999.0,55,-99.99,,,0.00,weatherlink.com 1.10,2013-04-13 07:44:00,
2013-04-13 02:00:00,27.8,14.0,29.78,SSW,195,20.0,-999.0,56,-99.99,,,0.00,weatherlink.com 1.10,2013-04-13 08:00:00,
2013-04-13 02:15:00,28.0,14.0,29.76,South,173,22.0,-999.0,56,-99.99,,,0.00,weatherlink.com 1.10,2013-04-13 08:15:00,
2013-04-13 02:30:00,27.6,14.0,29.75,SSW,202,19.0,-999.0,56,-99.99,,,0.00,weatherlink.com 1.10,2013-04-13 08:30:00,
2013-04-13 02:45:00,27.4,14.0,29.74,SSW,198,21.0,-999.0,57,-99.99,,,0.00,weatherlink.com 1.10,2013-04-13 08:45:00,
2013-04-13 03:00:00,28.1,13.0,29.74,SSW,205,15.0,-999.0,54,-99.99,,,0.00,weatherlink.com 1.10,2013-04-13 09:00:00,
2013-04-13 03:31:00,28.5,13.0,29.74,South,184,20.0,-999.0,52,-99.99,,,0.00,weatherlink.com 1.10,2013-04-13 09:31:00,
2013-04-13 03:46:00,28.2,12.0,29.73,South,180,23.0,-999.0,52,-99.99,,,0.00,weatherlink.com 1.10,2013-04-13 09:46:00,
2013-04-13 04:01:00,28.1,12.0,29.71,South,175,31.0,-999.0,52,-99.99,,,0.00,weatherlink.com 1.10,2013-04-13 10:01:00,
2013-04-13 04:31:00,28.1,14.0,29.71,South,185,20.0,-999.0,55,-99.99,,,0.00,weatherlink.com 1.10,2013-04-13 10:31:00,
2013-04-13 04:47:00,27.9,14.0,29.70,SSW,197,17.0,-999.0,56,-99.99,,,0.00,weatherlink.com 1.10,2013-04-13 10:47:00,
2013-04-13 05:02:00,27.8,14.0,29.69,South,191,19.0,-999.0,57,-99.99,,,0.00,weatherlink.com 1.10,2013-04-13 11:02:00,
2013-04-13 05:17:00,28.0,14.0,29.68,SSW,205,18.0,-999.0,56,-99.99,,,0.00,weatherlink.com 1.10,2013-04-13 11:17:00,
2013-04-13 05:33:00,28.2,14.0,29.66,South,178,25.0,-999.0,55,-99.99,,,0.00,weatherlink.com 1.10,2013-04-13 11:33:00,
2013-04-13 05:47:00,28.5,14.0,29.66,SSW,210,18.0,-999.0,55,-99.99,,,0.00,weatherlink.com 1.10,2013-04-13 11:47:00,
2013-04-13 06:18:00,29.1,14.0,29.62,South,173,25.0,-999.0,54,-99.99,,,0.00,weatherlink.com 1.10,2013-04-13 12:18:00,
2013-04-13 06:33:00,29.4,14.0,29.61,SSW,211,23.0,-999.0,53,-99.99,,,0.00,weatherlink.com 1.10,2013-04-13 12:33:00,
2013-04-13 06:48:00,29.6,14.0,29.61,SSE,166,24.0,-999.0,52,-99.99,,,0.00,weatherlink.com 1.10,2013-04-13 12:48:00,
2013-04-13 07:03:00,29.6,14.0,29.60,SW,215,11.0,-999.0,52,-99.99,,,0.00,weatherlink.com 1.10,2013-04-13 13:03:00,
2013-04-13 07:18:00,29.8,14.0,29.58,SW,222,24.0,-999.0,51,-99.99,,,0.00,weatherlink.com 1.10,2013-04-13 13:18:00,
2013-04-13 07:33:00,30.2,13.0,29.59,SW,236,18.0,-999.0,49,-99.99,,,0.00,weatherlink.com 1.10,2013-04-13 13:33:00,
2013-04-13 07:48:00,30.1,13.0,29.58,South,190,15.0,-999.0,49,-99.99,,,0.00,weatherlink.com 1.10,2013-04-13 13:48:00,
2013-04-13 08:04:00,30.5,12.0,29.58,South,190,27.0,-999.0,47,-99.99,,,0.00,weatherlink.com 1.10,2013-04-13 14:04:00,
2013-04-13 08:19:00,30.6,12.0,29.57,South,180,15.0,-999.0,46,-99.99,,,0.00,weatherlink.com 1.10,2013-04-13 14:19:00,
2013-04-13 08:34:00,31.2,12.0,29.59,SSW,205,19.0,-999.0,46,-99.99,,,0.00,weatherlink.com 1.10,2013-04-13 14:34:00,
2013-04-13 08:49:00,32.6,12.0,29.58,SSW,204,22.0,-999.0,43,-99.99,,,0.00,weatherlink.com 1.10,2013-04-13 14:49:00,
2013-04-13 09:04:00,33.9,13.0,29.59,South,179,16.0,-999.0,42,-99.99,,,0.00,weatherlink.com 1.10,2013-04-13 15:04:00,
2013-04-13 09:19:00,34.4,12.0,29.57,SSE,148,24.0,-999.0,40,-99.99,,,0.00,weatherlink.com 1.10,2013-04-13 15:19:00,
2013-04-13 09:35:00,35.1,13.0,29.55,WSW,238,18.0,-999.0,40,-99.99,,,0.00,weatherlink.com 1.10,2013-04-13 15:35:00,
2013-04-13 09:50:00,35.6,13.0,29.53,SW,224,21.0,-999.0,40,-99.99,,,0.00,weatherlink.com 1.10,2013-04-13 15:50:00,
2013-04-13 10:05:00,35.8,13.0,29.50,SSW,192,29.0,-999.0,39,-99.99,,,0.00,weatherlink.com 1.10,2013-04-13 16:05:00,
2013-04-13 10:20:00,36.2,13.0,29.47,SSW,209,26.0,-999.0,38,-99.99,,,0.00,weatherlink.com 1.10,2013-04-13 16:20:00,
2013-04-13 10:35:00,35.9,13.0,29.43,SW,236,20.0,-999.0,39,-99.99,,,0.00,weatherlink.com 1.10,2013-04-13 16:35:00,
2013-04-13 10:51:00,35.8,14.0,29.42,SW,226,22.0,-999.0,41,-99.99,,,0.00,weatherlink.com 1.10,2013-04-13 16:51:00,
2013-04-13 11:21:00,35.7,15.0,29.41,SW,229,24.0,-999.0,42,-99.99,,,0.00,weatherlink.com 1.10,2013-04-13 17:21:00,
2013-04-13 11:36:00,36.2,16.0,29.39,SW,230,38.0,-999.0,43,-99.99,,,0.00,weatherlink.com 1.10,2013-04-13 17:36:00,
2013-04-13 12:06:00,34.7,18.0,29.42,SW,233,33.0,-999.0,50,-99.99,,,0.00,weatherlink.com 1.10,2013-04-13 18:06:00,
2013-04-13 12:20:00,-999.0,-99.9,0.00,North,-999,-999.0,-999.0,-999,-99.99,,,0.00,weatherlink.com 1.10,2013-04-13 18:20:00,
2013-04-13 12:33:00,-999.0,-99.9,29.29,North,-999,-999.0,-999.0,-999,-99.99,,,0.00,weatherlink.com 1.10,2013-04-13 18:33:00,
2013-04-13 12:48:00,35.6,19.0,29.32,SSW,200,22.0,-999.0,52,-99.99,,,0.00,weatherlink.com 1.10,2013-04-13 18:48:00,
2013-04-13 13:03:00,35.0,19.0,29.30,South,186,46.0,-999.0,52,-99.99,,,0.00,weatherlink.com 1.10,2013-04-13 19:03:00,
2013-04-13 13:18:00,36.7,20.0,29.31,SSW,194,28.0,-999.0,50,-99.99,,,0.00,weatherlink.com 1.10,2013-04-13 19:18:00,
2013-04-13 13:33:00,36.9,20.0,29.30,South,176,34.0,-999.0,50,-99.99,,,0.00,weatherlink.com 1.10,2013-04-13 19:33:00,
2013-04-13 13:48:00,35.3,20.0,29.30,SSW,198,38.0,-999.0,53,-99.99,,,0.00,weatherlink.com 1.10,2013-04-13 19:48:00,
2013-04-13 14:03:00,35.2,19.0,29.31,SW,216,47.0,-999.0,53,-99.99,,,0.00,weatherlink.com 1.10,2013-04-13 20:03:00,
2013-04-13 14:19:00,35.0,20.0,29.33,WSW,237,43.0,-999.0,54,-99.99,,,0.00,weatherlink.com 1.10,2013-04-13 20:19:00,
2013-04-13 14:34:00,34.9,20.0,29.35,SSW,212,38.0,-999.0,55,-99.99,,,0.00,weatherlink.com 1.10,2013-04-13 20:34:00,
2013-04-13 14:49:00,34.8,20.0,29.35,South,179,34.0,-999.0,56,-99.99,,,0.00,weatherlink.com 1.10,2013-04-13 20:49:00,
2013-04-13 15:04:00,35.2,21.0,29.38,SSW,199,27.0,-999.0,56,-99.99,,,0.00,weatherlink.com 1.10,2013-04-13 21:04:00,
2013-04-13 15:19:00,35.2,21.0,29.35,SSW,210,33.0,-999.0,57,-99.99,,,0.00,weatherlink.com 1.10,2013-04-13 21:19:00,
2013-04-13 15:34:00,34.2,22.0,29.36,SW,232,29.0,-999.0,62,-99.99,,,0.00,weatherlink.com 1.10,2013-04-13 21:34:00,
2013-04-13 15:50:00,33.3,23.0,29.37,SSW,203,38.0,-999.0,67,-99.99,,,0.00,weatherlink.com 1.10,2013-04-13 21:50:00,
2013-04-13 16:05:00,34.0,24.0,29.36,SSW,205,27.0,-999.0,68,-99.99,,,0.00,weatherlink.com 1.10,2013-04-13 22:05:00,
2013-04-13 16:20:00,33.9,26.0,29.37,WSW,240,32.0,-999.0,73,-99.99,,,0.00,weatherlink.com 1.10,2013-04-13 22:20:00,
2013-04-13 16:35:00,32.5,25.0,29.38,South,180,25.0,-999.0,75,-99.99,,,0.00,weatherlink.com 1.10,2013-04-13 22:35:00,
2013-04-13 16:50:00,32.2,26.0,29.37,SSW,198,25.0,-999.0,78,-99.99,,,0.00,weatherlink.com 1.10,2013-04-13 22:50:00,
2013-04-13 17:05:00,31.0,26.0,29.35,South,182,25.0,-999.0,83,-99.99,,,0.00,weatherlink.com 1.10,2013-04-13 23:05:00,
2013-04-13 17:36:00,30.5,27.0,29.34,South,178,30.0,-999.0,86,-99.99,,,0.00,weatherlink.com 1.10,2013-04-13 23:36:00,
2013-04-13 17:51:00,30.3,27.0,29.35,South,187,30.0,-999.0,87,-99.99,,,0.00,weatherlink.com 1.10,2013-04-13 23:51:00,
2013-04-13 18:06:00,29.9,27.0,29.37,South,181,23.0,-999.0,90,-99.99,,,0.00,weatherlink.com 1.10,2013-04-14 00:06:00,
2013-04-13 18:22:00,29.3,28.0,29.37,South,186,16.0,-999.0,93,-99.99,,,0.00,weatherlink.com 1.10,2013-04-14 00:22:00,
2013-04-13 18:37:00,29.1,28.0,29.37,SSW,199,19.0,-999.0,94,-99.99,,,0.00,weatherlink.com 1.10,2013-04-14 00:37:00,
2013-04-13 18:52:00,29.1,28.0,29.37,SSW,205,18.0,-999.0,95,-99.99,,,0.00,weatherlink.com 1.10,2013-04-14 00:52:00,
2013-04-13 19:22:00,29.0,28.0,29.36,SSW,192,15.0,-999.0,95,-99.99,,,0.00,weatherlink.com 1.10,2013-04-14 01:22:00,
2013-04-13 19:37:00,29.2,28.0,29.36,SSE,163,16.0,-999.0,95,-99.99,,,0.00,weatherlink.com 1.10,2013-04-14 01:37:00,
2013-04-13 19:52:00,29.2,28.0,29.36,SSW,196,16.0,-999.0,95,-99.99,,,0.00,weatherlink.com 1.10,2013-04-14 01:52:00,
2013-04-13 20:08:00,29.2,28.0,29.37,SSW,211,16.0,-999.0,95,-99.99,,,0.00,weatherlink.com 1.10,2013-04-14 02:08:00,
2013-04-13 20:23:00,29.2,28.0,29.39,SW,219,10.0,-999.0,95,-99.99,,,0.00,weatherlink.com 1.10,2013-04-14 02:23:00,
2013-04-13 20:38:00,28.5,27.0,29.39,West,271,13.0,-999.0,95,-99.99,,,0.00,weatherlink.com 1.10,2013-04-14 02:38:00,
2013-04-13 20:53:00,28.2,27.0,29.38,West,267,7.0,-999.0,95,-99.99,,,0.00,weatherlink.com 1.10,2013-04-14 02:53:00,
2013-04-13 21:08:00,27.7,27.0,29.39,West,270,11.0,-999.0,95,-99.99,,,0.00,weatherlink.com 1.10,2013-04-14 03:08:00,
2013-04-13 21:23:00,27.2,26.0,29.40,WSW,253,17.0,-999.0,95,-99.99,,,0.00,weatherlink.com 1.10,2013-04-14 03:23:00,
2013-04-13 21:39:00,27.5,26.0,29.41,SW,229,10.0,-999.0,95,-99.99,,,0.00,weatherlink.com 1.10,2013-04-14 03:39:00,
2013-04-13 21:54:00,27.4,26.0,29.40,West,264,9.0,-999.0,95,-99.99,,,0.00,weatherlink.com 1.10,2013-04-14 03:54:00,
2013-04-13 22:09:00,26.1,25.0,29.40,NW,322,14.0,-999.0,95,-99.99,,,0.00,weatherlink.com 1.10,2013-04-14 04:09:00,
2013-04-13 22:24:00,24.9,24.0,29.41,SW,229,11.0,-999.0,94,-99.99,,,0.00,weatherlink.com 1.10,2013-04-14 04:24:00,
2013-04-13 22:39:00,24.1,23.0,29.39,WSW,250,15.0,-999.0,94,-99.99,,,0.00,weatherlink.com 1.10,2013-04-14 04:39:00,
2013-04-13 22:55:00,23.9,23.0,29.39,WSW,251,5.0,-999.0,94,-99.99,,,0.00,weatherlink.com 1.10,2013-04-14 04:55:00,
2013-04-13 23:10:00,23.3,22.0,29.40,SW,236,26.0,-999.0,94,-99.99,,,0.00,weatherlink.com 1.10,2013-04-14 05:10:00,
2013-04-13 23:25:00,19.6,18.0,29.36,WSW,251,15.0,-999.0,92,-99.99,,,0.00,weatherlink.com 1.10,2013-04-14 05:25:00,
2013-04-13 23:40:00,19.5,18.0,29.37,SSW,196,20.0,-999.0,92,-99.99,,,0.00,weatherlink.com 1.10,2013-04-14 05:40:00,
2013-04-13 23:55:00,19.1,17.0,29.37,West,269,10.0,-999.0,92,-99.99,,,0.00,weatherlink.com 1.10,2013-04-14 05:55:00,